CZ-6A DEB

Satellite information

Favourite Embed

Satellite Type and Status

DEBRISIN ORBIT

Key statistics

Satellite CZ-6A DEB at a glance.

Uptime

335

Days in orbit

Revolutions

≈ 14.2

Per day

Orbit

LEO

Low Earth Orbit

Inclination

89.1

Latest

Satellite identification and parameters

Extended collection of information and parameters for CZ-6A DEB.

Object identification

Identified? True

Debris? True

Object name: CZ-6A DEB

International designator: 2024-140TJ

Object number (NORAD): 61297

Object ID (CCSDS): 61297

Country: PEOPLES REPUBLIC OF CHINA (PRC)

Current information (Y/N): Y

RCS size: SMALL

Orbital parameters

Period: 101.471 minutes

Inclination: 89.0534 deg

SMA: 7206.466 km

Apoapsis: 871.746 km

Periapsis: 784.916 km

RAAN: 315.6925 deg

Eccentricy: 0.0060245

Argument of periapsis: 222.211 deg

Mean anomaly: 137.4434 deg

Mean motion: 14.19120399 rev/day

Mean motion (dot): 0.00002477 rev/day2

B* drag term: 0.0011573 1/REarth

Two-line elements (TLE)

Creation date: July 6, 2025, 10:56 p.m.

Reference frame: TEME

Reference center: EARTH

Epoch: July 6, 2025, 7:33 p.m. UTC

TLE line 0: 0 CZ-6A DEB

TLE line 1: 1 61297U 24140TJ 25187.81526496 .00002477 00000-0 11573-2 0 9999

TLE line 2: 2 61297 89.0534 315.6925 0060245 222.2110 137.4434 14.19120399 44287

Live tracking on map

Real-time ground track for satellite CZ-6A DEB.

In-orbit conjunctions

A list of the most updated potential collisions computed for object CZ-6A DEB.

Target Orbit TCA Probability of collision Miss distance Type
DELTA 1 DEB SSO 2025-03-03 16:55:43 0.000541579 492.0 (m) DEBRIS
COSMOS 397 DEB * LEO 2025-02-03 09:50:57 0.0001336086 365.0 (m) DEBRIS
FENGYUN 1C DEB SSO 2024-11-10 07:12:41 0.0002374239 520.0 (m) DEBRIS
COSMOS 1697 LEO 2024-11-03 13:44:04 0.0007910614 813.0 (m) PAYLOAD
DELTA 1 DEB SSO 2024-10-14 20:33:32 0.0001291326 871.0 (m) DEBRIS

Associated space launch

18 Low Earth Orbit communication satellites with Ku, Q and V band payloads for the G60 constellation operated by Shanghai Spacecom Satellite Technology (SSST) with funding backed by the Shanghai local government. Initial constellation will consist of 1296 satellites by 2027 with long term plans to expand it to 12000 satellites.

CZ-6A DEB was lifted into orbit during the mission ‘Long March 6A | G60 Polar Group 01’, on board a Long March 6A space rocket.

The launch took place on Aug. 6, 2024, 6:42 a.m. from Launch Complex 9A.

For more information about the launch, click the button.

Launch to space Long March 6A | G60 Polar Group 01
Long March 6A | G60 Polar Group 01

Agency: N/A

Status: Launch Successful

Launch date: Aug. 6, 2024, 6:42 a.m. UTC

Rocket: Long March 6A

Launch pad: Launch Complex 9A

Location: Taiyuan Satellite Launch Center, People's Republic of China

...

Latest news about this satellite

News about space launch
Brightness of first Chinese broadband constellation satellites alarms astronomers

The first satellites of a Chinese broadband constellation are significantly brighter than those of Western systems, posing a new challenge for astronomers.

News about space launch
Chinese rocket stage breaks up into cloud of more than 700 pieces of space debris

HELSINKI — A Chinese Long March 6A rocket’s upper stage has fragmented into a cloud of over 700 pieces of space debris, adding to concerns about long-term orbital safety. China […]

News about space launch
China's Thousand Sails Megaconstellation Kicks Off with Dangerous Debris Field

China's Thousand Sails Megaconstellation Kicks Off with Dangerous Debris Field


Newsletter sign-up

Weekly statistics, charts and insights to help you stay on top of the space industry.